KIAG

Niagara Falls International Airport

Airport
ICAO code
KIAG
IATA Code
IAG
Summary
ICAO Region
NAM
ICAO Territory
Location

Niagara Falls, New York,

Serving
Niagara Falls
Elevation
589 ft
Coordinates
43° 6' 17" N , 78° 56' 29" W
KCC
Airport GND
Aircraft Ground De/Anti Icing
Airport LOS
Parallel Runway Operation
Airport WX
Lake Effect Snow
Metar
KIAG 150953Z AUTO 22011KT 10SM OVC009 24/22 A2986 RMK AO2 SLP105 T02440217

Niagara Falls International Airport is a joint civil-military (USAFR) airport located 6 km east of the central business district of Niagara Falls, in Niagara County, New York.

Climatology

Humid Continental climate (Köppen climate classification Dfb) - Variable weather patterns and a large seasonal temperature variance. Summers are often warm and humid with frequent thunderstorms and winters can be very cold with frequent snowfall and persistent snow cover.

Airport map

Aerial View

SKYbrary Partners:

Safety knowledge contributed by: